Terug naar catalogus

SL-14 DEB

ActiefPO
NORAD 45337·DEBRIS·🇷🇺 Russia

Gelanceerd Aug 15, 1991 vanaf Plesetsk Cosmodrome

Loading…

Volgende Passages (komende 24 uur)

TLE

VersSource: Space-Track

Epoch: Sep 14, 2026, 13:02 UTC

1 45337U 91056CB  26257.54346142  .00000815  00000-0  21975-2 0  9994
2 45337  82.5737  95.9458 0042824 110.8889 249.6824 13.13142192313088

Volg SL-14 DEB in realtime met AllMySat

Download on the App Store